CW2550 Weather Reports


Display with metric or nautical units.
time (UTC)temp
F
wind
direction
speed
MPH
gust
MPH
rain 1hr
in
rain 24hr
in
rain mn
in
humidity
%
barometer
mb
20260504050125 53 189 4.0 8.0 0.00 0.02 0.00 51 1001.7
20260504044551 54 190 4.0 7.0 0.00 0.02 0.02 51 1001.9
20260504043052 54 182 2.0 4.0 0.00 0.02 0.02 50 1002.2
20260504041547 54 184 2.0 5.0 0.00 0.02 0.02 49 1002.4
20260504040058 55 181 3.0 5.0 0.00 0.02 0.02 47 1002.6
20260504034549 56 185 2.0 8.0 0.00 0.02 0.02 46 1002.9
20260504033050 56 192 2.0 4.0 0.00 0.02 0.02 45 1003.1
20260504031617 55 242 2.0 4.0 0.00 0.02 0.02 45 1003.3
20260504030044 57 243 1.0 2.0 0.00 0.02 0.02 43 1003.4
20260504024546 58 243 2.0 4.0 0.00 0.02 0.02 41 1003.4
20260504023050 59 245 1.0 5.0 0.00 0.02 0.02 40 1003.4
20260504021547 60 246 1.0 3.0 0.00 0.02 0.02 37 1003.5
20260504020047 61 305 1.0 2.0 0.00 0.02 0.02 36 1003.6
20260504014550 62 0 0.0 0.0 0.00 0.02 0.02 34 1003.6
20260504013044 63 0 0.0 2.0 0.00 0.02 0.02 33 1003.6
20260504011546 64 0 0.0 3.0 0.00 0.02 0.02 32 1003.7
20260504010054 65 0 0.0 3.0 0.00 0.02 0.02 30 1003.6
20260504004548 66 292 0.0 3.0 0.00 0.02 0.02 30 1003.6
20260504003047 67 318 0.0 8.0 0.00 0.02 0.02 29 1003.7
20260504001606 67 333 2.0 10.0 0.00 0.02 0.02 29 1003.8
20260504000039 67 309 3.0 11.0 0.00 0.02 0.02 28 1003.7
20260503234548 68 304 3.0 10.0 0.00 0.02 0.02 28 1003.9
20260503233051 68 323 4.0 13.0 0.00 0.02 0.02 28 1004.0
20260503231550 68 331 3.0 14.0 0.00 0.02 0.02 28 1004.0
20260503230041 68 300 2.0 9.0 0.00 0.02 0.02 28 1004.1
20260503224554 68 355 4.0 13.0 0.00 0.02 0.02 28 1004.3
20260503223047 68 334 7.0 13.0 0.00 0.02 0.02 29 1004.3
20260503221543 69 309 4.0 11.0 0.00 0.02 0.02 28 1004.4
20260503220041 69 329 4.0 14.0 0.00 0.02 0.02 31 1004.3
20260503214555 69 325 7.0 15.0 0.00 0.02 0.02 31 1004.3
20260503213109 68 337 5.0 14.0 0.00 0.02 0.02 30 1004.4
20260503211605 69 301 8.0 13.0 0.00 0.02 0.02 29 1004.5
20260503210044 68 338 3.0 17.0 0.00 0.02 0.02 30 1004.6
20260503204559 69 248 3.0 13.0 0.00 0.02 0.02 29 1004.9
20260503203046 68 317 4.0 14.0 0.00 0.02 0.02 30 1004.9
20260503201545 68 318 4.0 16.0 0.00 0.02 0.02 32 1005.1
20260503200045 68 335 6.0 17.0 0.00 0.02 0.02 33 1005.2
20260503194543 67 302 7.0 18.0 0.00 0.02 0.02 35 1005.3
20260503193053 67 327 5.0 17.0 0.00 0.02 0.02 35 1005.2
20260503191601 67 304 6.0 15.0 0.00 0.02 0.02 33 1005.3
20260503190047 67 296 3.0 16.0 0.00 0.02 0.02 35 1005.4
20260503184604 66 333 8.0 17.0 0.00 0.02 0.02 36 1005.3
20260503183045 66 329 8.0 17.0 0.00 0.02 0.02 35 1005.5
20260503181550 66 319 5.0 15.0 0.00 0.02 0.02 39 1005.6
20260503180046 65 313 5.0 15.0 0.00 0.02 0.02 40 1005.7
20260503174600 65 319 6.0 18.0 0.00 0.02 0.02 39 1005.8
20260503173041 65 306 6.0 15.0 0.00 0.02 0.02 40 1005.7
20260503171548 65 279 5.0 17.0 0.00 0.02 0.02 39 1005.7
20260503081554 55 206 10.0 18.0 0.00 0.02 0.02 47 1004.8